TimeAST,TemperatureF,Dew PointF,Humidity,Sea Level PressureIn,VisibilityMPH,Wind Direction,Wind SpeedMPH,Gust SpeedMPH,PrecipitationIn,Events,Conditions,WindDirDegrees,DateUTC
12:00 AM,10.4,3.2,73,30.10,15.0,WSW,9.2,-,N/A,,Partly Cloudy,240,2014-02-09 04:00:00
1:00 AM,10.4,3.2,73,30.10,15.0,WSW,6.9,-,N/A,,Clear,240,2014-02-09 05:00:00
2:00 AM,9,2,64,30.11,15,WSW,8.1,,,,,240,2014-02-09 06:00:00
2:00 AM,8.6,3.2,79,30.11,15.0,WSW,8.1,-,N/A,,Clear,240,2014-02-09 06:00:00
3:00 AM,8.6,3.2,79,30.11,15.0,WSW,6.9,-,N/A,,Clear,250,2014-02-09 07:00:00
4:00 AM,6.8,1.4,79,30.09,15.0,West,6.9,-,N/A,,Partly Cloudy,270,2014-02-09 08:00:00
5:00 AM,6.8,1.4,79,30.10,15.0,West,8.1,-,N/A,,Partly Cloudy,270,2014-02-09 09:00:00
6:00 AM,5.0,1.4,85,30.10,15.0,WSW,6.9,-,N/A,,Partly Cloudy,250,2014-02-09 10:00:00
7:00 AM,5.0,-0.4,78,30.11,15.0,West,8.1,-,N/A,,Scattered Clouds,270,2014-02-09 11:00:00
8:00 AM,8,2,64,30.13,15,West,9.2,,,,Scattered Clouds,280,2014-02-09 12:00:00
8:00 AM,8.6,1.4,73,30.13,15.0,West,9.2,-,N/A,,Mostly Cloudy,280,2014-02-09 12:00:00
9:00 AM,10.4,1.4,67,30.13,15.0,WNW,6.9,-,N/A,,Mostly Cloudy,290,2014-02-09 13:00:00
10:00 AM,10.4,3.2,73,30.12,15.0,WNW,9.2,-,N/A,,Mostly Cloudy,290,2014-02-09 14:00:00
11:00 AM,12.2,1.4,62,30.12,15.0,WNW,11.5,-,N/A,,Scattered Clouds,300,2014-02-09 15:00:00
12:00 PM,14.0,-2.2,49,30.11,15.0,NW,10.4,-,N/A,,Scattered Clouds,320,2014-02-09 16:00:00
1:00 PM,14.0,-2.2,49,30.10,15.0,NW,9.2,-,N/A,,Scattered Clouds,320,2014-02-09 17:00:00
2:00 PM,14,-2,34,30.09,15,NW,8.1,,,,Scattered Clouds,310,2014-02-09 18:00:00
2:00 PM,14.0,-2.2,49,30.09,15.0,NW,9.2,-,N/A,,Partly Cloudy,310,2014-02-09 18:00:00
3:00 PM,14.0,-0.4,53,30.08,15.0,NW,6.9,-,N/A,,Partly Cloudy,320,2014-02-09 19:00:00
4:00 PM,12.2,-0.4,57,30.08,15.0,NW,8.1,-,N/A,,Partly Cloudy,320,2014-02-09 20:00:00
5:00 PM,10.4,-2.2,57,30.08,15.0,North,4.6,-,N/A,,Partly Cloudy,360,2014-02-09 21:00:00
6:00 PM,6.8,-4.0,61,30.07,15.0,NNE,3.5,-,N/A,,Partly Cloudy,30,2014-02-09 22:00:00
7:00 PM,5.0,-4.0,66,30.12,15.0,South,3.5,-,N/A,,Partly Cloudy,190,2014-02-09 23:00:00
8:00 PM,2,-6,56,30.09,15,SSE,3.5,,,,Clear,160,2014-02-10 00:00:00
8:00 PM,1.4,-5.8,72,30.09,15.0,South,2.3,-,N/A,,Partly Cloudy,170,2014-02-10 00:00:00
9:00 PM,-2.2,-5.8,85,30.08,15.0,Calm,Calm,-,N/A,,Partly Cloudy,0,2014-02-10 01:00:00
10:00 PM,-2.2,-4.0,92,30.08,15.0,SSE,2.3,-,N/A,,Clear,150,2014-02-10 02:00:00
11:00 PM,-0.4,-5.8,78,30.06,15.0,South,2.3,-,N/A,,Scattered Clouds,170,2014-02-10 03:00:00